Weather History for KHSE - March, 2012

Change the Weather History Date:

Sunday, March 11, 2012

  Actual Average Record
Temperature  
Mean Temperature 50 °F 50 °F  
Max Temperature 57 °F 57 °F 73 °F (1982)
Min Temperature 43 °F 43 °F 26 °F (1981)
Degree Days  
Heating Degree Days 15 15  
Month to date heating degree days 101 173  
Since 1 July heating degree days 1512 2097  
Cooling Degree Days 0 0  
Month to date cooling degree days 1 0  
Year to date cooling degree days 1 0  
Moisture  
Dew Point 37 °F    
Average Humidity 60    
Maximum Humidity 70    
Minimum Humidity 50    
Precipitation  
Precipitation 0.00 in 0.15 in 2.26 in (1926)
Month to date precipitation 1.99 1.63  
Year to date precipitation 10.45 10.89  
Snow  
Snow 0.00 in - - ()
Month to date snowfall 0.0  
Since 1 July snowfall T  
Snow Depth 0.00 in    
Sea Level Pressure  
Sea Level Pressure 30.53 in    
Wind  
Wind Speed 6 mph (NE)    
Max Wind Speed 13 mph    
Max Gust Speed 18 mph    
Visibility 10 miles    
Events      
T = Trace of Precipitation, MM = Missing Value Source: NWS Daily Summary

Daily Weather History Graph

Daily Weather History Graph

Search for Another Location

Airport or City:

Trip Planner

Search our weather history database for the weather conditions in past years. The results will help you decide how hot, cold, wet, or windy it might be!

Date:

Astronomy

Mar. 11, 2012 Rise Set
Actual Time 7:18 AM EDT 7:07 PM EDT
Civil Twilight 6:52 AM EDT 7:32 PM EDT
Nautical Twilight 6:23 AM EDT 8:01 PM EDT
Astronomical Twilight 5:53 AM EDT 8:31 PM EDT
Moon 11:16 PM EDT (3/11) 9:02 AM EDT (3/11)
Length of Visible Light 12h 39m
Length of Day
11h 49m
Waning Gibbous, 85% of the Moon is Illuminated
Mar 11
Waning Gibbous
Mar 14
Last Quarter
Mar 22
New
Mar 30
First Quarter
Apr 6
Full

Hourly Weather History & Observations

Time (EDT) Temp. Windchill Dew Point Humidity Pressure Visibility Wind Dir Wind Speed Gust Speed Precip Events Conditions
12:51 AM 44.1 °F 41.5 °F 34.0 °F 68% 30.55 in 10.0 mi NE 4.6 mph - N/A   Clear
1:51 AM 44.1 °F - 34.0 °F 68% 30.55 in 10.0 mi Calm Calm - N/A   Clear
3:51 AM 43.0 °F 41.3 °F 33.1 °F 68% 30.53 in 10.0 mi NE 3.5 mph - N/A   Clear
4:51 AM 45.0 °F 41.8 °F 33.1 °F 63% 30.53 in 10.0 mi NE 5.8 mph - N/A   Clear
5:51 AM 45.0 °F 41.8 °F 33.1 °F 63% 30.54 in 10.0 mi NE 5.8 mph - N/A   Clear
6:51 AM 45.0 °F 41.8 °F 34.0 °F 65% 30.55 in 10.0 mi NE 5.8 mph - N/A   Clear
7:51 AM 46.0 °F 42.5 °F 36.0 °F 68% 30.56 in 10.0 mi NE 6.9 mph - N/A   Clear
8:51 AM 51.1 °F - 37.9 °F 61% 30.56 in 10.0 mi NE 5.8 mph - N/A   Clear
9:51 AM 54.0 °F - 35.1 °F 49% 30.58 in 10.0 mi NE 10.4 mph - N/A   Clear
10:51 AM 55.0 °F - 35.1 °F 47% 30.58 in 10.0 mi NE 9.2 mph - N/A   Clear
11:51 AM 55.9 °F - 35.1 °F 45% 30.58 in 10.0 mi NNE 10.4 mph - N/A   Clear
12:51 PM 55.9 °F - 39.9 °F 55% 30.58 in 10.0 mi Variable 6.9 mph 16.1 mph N/A   Clear
1:51 PM 55.9 °F - 39.0 °F 53% 30.56 in 10.0 mi NNE 11.5 mph 16.1 mph N/A   Clear
2:51 PM 55.0 °F - 39.0 °F 55% 30.53 in 10.0 mi NE 10.4 mph 16.1 mph N/A   Clear
3:51 PM 55.0 °F - 37.9 °F 53% 30.51 in 10.0 mi NNE 10.4 mph 16.1 mph N/A   Clear
4:51 PM 55.0 °F - 39.0 °F 55% 30.50 in 10.0 mi NNE 5.8 mph - N/A   Clear
5:51 PM 55.9 °F - 33.1 °F 42% 30.49 in 10.0 mi Variable 6.9 mph - N/A   Clear
6:51 PM 53.1 °F - 36.0 °F 52% 30.50 in 10.0 mi NE 4.6 mph - N/A   Mostly Cloudy
7:51 PM 48.9 °F - 37.9 °F 66% 30.50 in 10.0 mi East 3.5 mph - N/A   Partly Cloudy
8:51 PM 48.0 °F - 39.0 °F 71% 30.50 in 10.0 mi ENE 3.5 mph - N/A   Clear
9:51 PM 50.0 °F - 39.0 °F 66% 30.50 in 10.0 mi ENE 3.5 mph - N/A   Clear
10:51 PM 45.0 °F 43.5 °F 37.0 °F 74% 30.49 in 10.0 mi East 3.5 mph - N/A   Clear
11:51 PM 45.0 °F 43.5 °F 39.0 °F 80% 30.48 in 10.0 mi East 3.5 mph - N/A   Clear
12:51 AM 48.0 °F - 43.0 °F 83% 30.47 in 10.0 mi East 3.5 mph - N/A   Clear